Flag for Canada Weather past 2 weeks in Moncton, New Brunswick, Canada

30 °F

Passing clouds.

Feels Like: 23 °F
Forecast: 17 / 31 °F
Wind: 7 mph from Southwest

Location: Moncton

Current Time: Nov 25, 2015 at 2:38:36 PM

Latest Report: Nov 25, 2015 at 2:00 PM

Visibility: 15 mi

Pressure: 30.76 "Hg

Humidity: 59%

Dew point: 18 °F

Location of MonctonLocation

Historic Weather in Moncton — Graph


Moncton temperature yesterday

Maximum temperature yesterday: 28 °F (at 12:00 AM)
Minimum temperature yesterday: 21 °F (at 9:00 PM)
Average temperature yesterday: 25 °F

Past Weeks' High & Low Weather Summary

High55 °F (Nov 10, 1:00 PM)100% (Nov 10, 10:00 PM)30.76 "Hg (Nov 10, 10:00 PM)
Low16 °F (Nov 25, 5:00 AM)51% (Nov 10, 1:00 PM)29.22 "Hg (Nov 13, 1:00 PM)
Average37 °F84%30.04 "Hg
* Reported Nov 10 1:00 PM — Nov 25 1:00 PM, Moncton, Weather by CustomWeather, © 2015

Note: Actual official high and low records may vary slightly from our data, if they occured in-between our weather recording intervals... More about our weather records


Moncton weather history for previous 24 hours

Time TempWeatherWind HumidityBarometerVisibility
1:00 PM
Wed, Nov 25
28 °FPassing clouds.10 mph59%30.76 "Hg15 mi
12:00 PM27 °FPassing clouds.8 mph59%30.74 "Hg15 mi
11:00 AM25 °FPassing clouds.10 mph63%30.73 "Hg15 mi
10:00 AM23 °FPassing clouds.9 mph68%30.71 "Hg15 mi
9:00 AM19 °FPassing clouds.10 mph79%30.68 "Hg15 mi
8:00 AM16 °FPassing clouds.7 mph86%30.65 "Hg15 mi
7:00 AM16 °FPassing clouds.8 mph86%30.60 "Hg15 mi
6:00 AM16 °FClear.9 mph86%30.57 "Hg15 mi
5:00 AM16 °FClear.9 mph86%30.53 "Hg15 mi
4:00 AM18 °FClear.12 mph86%30.49 "Hg15 mi
3:00 AM19 °FPassing clouds.12 mph79%30.47 "Hg15 mi
2:00 AM18 °FPassing clouds.9 mph86%30.43 "Hg15 mi
1:00 AM19 °FPassing clouds.10 mph79%30.39 "Hg15 mi
12:00 AM21 °FPassing clouds.12 mph74%30.36 "Hg15 mi
11:00 PM
Tue, Nov 24
21 °FPassing clouds.12 mph74%30.34 "Hg15 mi
10:00 PM21 °FPassing clouds.10 mph74%30.32 "Hg15 mi
9:00 PM21 °FPassing clouds.9 mph80%30.30 "Hg15 mi
8:00 PM23 °FPassing clouds.9 mph74%30.27 "Hg15 mi
7:00 PM23 °FPassing clouds.9 mph74%30.24 "Hg15 mi
6:00 PM25 °FPassing clouds.10 mph74%30.19 "Hg15 mi
5:00 PM25 °FPassing clouds.10 mph74%30.14 "Hg15 mi
4:00 PM25 °FLight snow. Partly sunny.12 mph74%30.12 "Hg15 mi
3:00 PM25 °FLight snow. Partly sunny.14 mph69%30.10 "Hg15 mi
2:00 PM25 °FLight snow. Mostly cloudy.9 mph74%30.09 "Hg15 mi
Weather by CustomWeather, © 2015

See weather overviewHow to use our weather pages